User: anonymous   Login
Location: Unspecified
(0.0000°N, 0.0000°E)
Time: 04:26:36
(UTC+00:00)
Language:

NAVSTAR 61 (USA 199) - Orbit

View from above orbital plane
View from above orbital plane
View from above satellite
View from above satellite

Ground track
Ground track

The orbit data is extracted from the following two-line orbital elements,

1 32384U 07062A   19115.22915681 -.00000107  00000-0  00000+0 0  9994
2 32384  56.4672  17.2026 0007407  93.5618  88.2900  2.00553517 83220
Epoch (UTC): 25 April 2019 05:29:59
Eccentricity: 0.0007407
inclination: 56.4672°
perigee height: 20163 km
apogee height: 20202 km
right ascension of ascending node: 17.2026°
argument of perigee: 93.5618°
revolutions per day: 2.00553517
mean anomaly at epoch: 88.2900°
orbit number at epoch: 8322

The dashed part of the orbit path shows where the satellite is in the earth's shadow,  

DLR